Regional Weather Roundup
Issued by NWS Northern Indiana

Home | Current Version | Previous Version | Graphics & Text | Print | Product List | Glossary On
Versions: 1 2 3 4 5 6 7 8 9 10 11 12 13 14 15 16 17 18 19 20 21 22 23 24 25 26 27 28 29 30 31 32 33 34 35 36 37 38 39 40 41 42 43 44 45 46 47 48 49 50
000
ASUS43 KIWX 041200
RWRIWX

KIWX WEATHER ROUNDUP
NATIONAL WEATHER SERVICE NORTHERN INDIANA
800 AM EDT WED MAY 04 2016

NOTE: "FAIR" INDICATES FEW OR NO CLOUDS BELOW 12,000 FEET WITH NO
SIGNIFICANT WEATHER AND/OR OBSTRUCTIONS TO VISIBILITY.

* THESE STATIONS ARE NOT UNDER NWS QUALITY CONTROL. THEY ALSO MAY NOT
  REPORT WEATHER SUCH AS PRECIPITATION OR FOG.

INZ001>027-041300-
NORTHERN INDIANA

CITY           SKY/WX    TMP DP  RH WIND       PRES   REMARKS
GARY*          PTSUNNY   45  45 100 N28       29.69R
VALPARAISO     CLOUDY    45  43  93 N13       29.65R
SOUTH BEND     LGT RAIN  46  45  96 N13G20    29.62R
6HR MIN TEMP:  46; 6HR MAX TEMP:  55; 6HR PCP:  0.37;

ELKHART*       RAIN      48  48 100 NW8       29.61R
GOSHEN         LGT RAIN  50  47  89 SW5       29.58F FOG
6HR MIN TEMP:  49; 6HR MAX TEMP:  54; 6HR PCP:  0.12;

ANGOLA*        CLOUDY    50  46  87 S5        29.59S
FORT WAYNE     LGT RAIN  51  45  79 SW12      29.62F
6HR MIN TEMP:  50; 6HR MAX TEMP:  53; 6HR PCP: TRACE;


$$
INZ028>050-041300-
CENTRAL INDIANA

CITY           SKY/WX    TMP DP  RH WIND       PRES   REMARKS
LAFAYETTE      CLOUDY    50  48  93 W9        29.65R
6HR MIN TEMP:  49; 6HR MAX TEMP:  53; 6HR PCP:  0.15;

KOKOMO*        CLOUDY    50  45  81 SW18G24   29.62F
6HR MIN TEMP:  50; 6HR MAX TEMP:  55; 6HR PCP:  0.07;

MUNCIE*        LGT RAIN  52  44  74 SW12      29.65S
6HR MIN TEMP:  52; 6HR MAX TEMP:  55; 6HR PCP:  0.01;

INDIANAPOLIS   LGT RAIN  50  46  86 SW20G29   29.66F
6HR MIN TEMP:  50; 6HR MAX TEMP:  53; 6HR PCP:  0.03;


$$
MIZ043>046-050>051-056>058-064>065-071>073-077>080-041300-
SOUTHWEST LOWER MICHIGAN

CITY           SKY/WX    TMP DP  RH WIND       PRES   REMARKS
BATTLE CREEK   LGT RAIN  50  45  83 SW9       29.57S
6HR MIN TEMP:  49; 6HR MAX TEMP:  54; 6HR PCP:  0.02;

BENTON HARBOR  LGT RAIN  43  41  93 NW12G18   29.63R FOG
6HR MIN TEMP:  43; 6HR MAX TEMP:  57; 6HR PCP:  0.29;

COLDWATER*     LGT RAIN  51  46  82 SW6       29.59R
6HR MIN TEMP:  50; 6HR MAX TEMP:  55;

HILLSDALE*     CLOUDY    50  42  74 S6        29.59S
6HR MIN TEMP:  49; 6HR MAX TEMP:  53;

HOLLAND        RAIN     N/A N/A N/A NW7       29.61S
                                      6HR PCP:  0.30;

GRAND RAPIDS   RAIN      49  46  90 N9        29.58R FOG
6HR MIN TEMP:  49; 6HR MAX TEMP:  55; 6HR PCP:  0.04;

KALAMAZOO      LGT RAIN  50  47  89 S6        29.57S FOG
6HR MIN TEMP:  50; 6HR MAX TEMP:  54; 6HR PCP:  0.11;

STURGIS*       LGT RAIN  48  47  96 S6        29.58S
6HR MIN TEMP:  48; 6HR MAX TEMP:  54; 6HR PCP:  0.02;

THREE RIVERS*  LGT RAIN  50  47  88 SW9       29.59R
6HR MIN TEMP:  50; 6HR MAX TEMP:  55;


$$
OHZ001>008-015>018-024>025-041300-
NORTHWEST OHIO

CITY           SKY/WX    TMP DP  RH WIND       PRES   REMARKS
DEFIANCE       PTSUNNY   54  45  71 S9        29.62F
6HR MIN TEMP:  50; 6HR MAX TEMP:  54; 6HR PCP: TRACE;

FINDLAY        CLOUDY    51  43  74 S10       29.64F
6HR MIN TEMP:  47; 6HR MAX TEMP:  52; 6HR PCP:  0.01;

TOLEDO EXPRESS CLOUDY    50  45  83 S7        29.62F
6HR MIN TEMP:  48; 6HR MAX TEMP:  51; 6HR PCP:  0.01;

TOLEDO METCALF CLOUDY    51  45  79 S7        29.64F
6HR MIN TEMP:  49; 6HR MAX TEMP:  51; 6HR PCP:  0.01;

LIMA           CLOUDY    51  46  83 S10       29.64F
6HR MIN TEMP:  48; 6HR MAX TEMP:  51; 6HR PCP: TRACE;


$$
AND FOR LAKE MICHIGAN COASTAL AND OPEN LAKE BUOY OBSERVATIONS

STATION/POSITION TEMP    WIND        PRES    VSBY  WAVE
                 AIR SEA DIR/SP/G                  HT/PER
                 (F)     (DEG/KT/KT) (MB)    (MI)  (FT/S)
CALUMET HARBOR    45     330/ 15/ 25 1004.3R
BURNS HARBOR      45     340/ 17/ 21 1004.4R
SAINT JOSEPH      46     320/ 15/ 19 1004.1R
SOUTH LAKE BUOY   42 41  360/ 23/ 29 1003.4          3/ 4
4 MI NW BRIDGMAN  45 48                N/A           3/ 3

$$
&&




USA.gov is the U.S. government's official web portal to all federal, state and local government web resources and services.